When you browse on this site, cookies collect data to enhance your experience and personalize the content and advertising you see.
Visit our Privacy Policy to learn more. By continuing to use the site, you agree to this use of cookies and data.
  • In Österreich
  • Länderverzeichnis
  • Für 7 Tage
  • Wassertemperatur
  • Wetterkarte
  • News
  • Widgets
  • user-avatar
    Anmelden

    Stündliche Wetter Kaprun

    Heute, 14 Oktober, Montag

    Zeit Temperatur Niederschläge Wind Luftdruck Luftfeuchtigkeit
    00:00 +6°C° 0 mm 1 m/S 600 mmHg 67%
    01:00 +6°C° 0 mm 1 m/S 600 mmHg 68%
    02:00 +6°C° 0 mm 1 m/S 600 mmHg 68%
    03:00 +6°C° 0 mm 1 m/S 599 mmHg 68%
    04:00 +6°C° 0 mm 1 m/S 599 mmHg 69%
    05:00 +5°C° 0 mm 2 m/S 599 mmHg 68%
    06:00 +6°C° 0 mm 2 m/S 599 mmHg 68%
    07:00 +6°C° 0 mm 2 m/S 599 mmHg 68%
    08:00 +9°C° 0 mm 2 m/S 600 mmHg 62%
    09:00 +12°C° 0 mm 2 m/S 601 mmHg 56%
    10:00 +15°C° 0 mm 2 m/S 602 mmHg 49%
    11:00 +16°C° 0 mm 2 m/S 602 mmHg 47%
    12:00 +17°C° 0 mm 2 m/S 602 mmHg 45%
    13:00 +17°C° 0 mm 2 m/S 603 mmHg 44%
    14:00 +16°C° 0 mm 3 m/S 602 mmHg 51%
    15:00 +14°C° 0 mm 3 m/S 601 mmHg 58%
    16:00 +13°C° 0 mm 3 m/S 600 mmHg 66%
    17:00 +11°C° 0 mm 3 m/S 599 mmHg 71%
    18:00 +9°C° 0 mm 3 m/S 599 mmHg 77%
    19:00 +7°C° 0 mm 3 m/S 598 mmHg 82%
    20:00 +7°C° 0 mm 3 m/S 598 mmHg 81%
    21:00 +5°C° 0 mm 3 m/S 597 mmHg 79%
    22:00 +5°C° 0 mm 3 m/S 597 mmHg 77%
    23:00 +4°C° 0 mm 3 m/S 597 mmHg 75%

    Morgen, 15 Oktober, Dienstag

    Zeit Temperatur Niederschläge Wind Luftdruck Luftfeuchtigkeit
    00:00 +4°C° 0 mm 3 m/S 597 mmHg 74%
    01:00 +3°C° 0 mm 3 m/S 596 mmHg 72%
    02:00 +3°C° 0 mm 3 m/S 596 mmHg 72%
    03:00 +3°C° 0 mm 3 m/S 595 mmHg 72%
    04:00 +2°C° 0 mm 3 m/S 595 mmHg 72%
    05:00 +2°C° 0 mm 3 m/S 595 mmHg 74%
    06:00 +2°C° 0 mm 3 m/S 594 mmHg 75%
    07:00 +1°C° 0 mm 4 m/S 594 mmHg 77%
    08:00 +4°C° 0 mm 4 m/S 595 mmHg 74%
    09:00 +5°C° 0 mm 4 m/S 595 mmHg 71%
    10:00 +7°C° 0 mm 4 m/S 595 mmHg 69%
    11:00 +7°C° 0 mm 4 m/S 595 mmHg 68%
    12:00 +8°C° 0 mm 5 m/S 595 mmHg 67%
    13:00 +9°C° 0 mm 5 m/S 595 mmHg 67%
    14:00 +8°C° 0 mm 4 m/S 595 mmHg 69%
    15:00 +8°C° 0 mm 4 m/S 594 mmHg 72%
    16:00 +7°C° 0 mm 4 m/S 594 mmHg 75%
    17:00 +6°C° 0 mm 4 m/S 594 mmHg 78%
    18:00 +5°C° 0 mm 3 m/S 594 mmHg 82%
    19:00 +5°C° 0 mm 3 m/S 594 mmHg 85%
    20:00 +4°C° 0.4 mm 3 m/S 595 mmHg 88%
    21:00 +5°C° 0.4 mm 2 m/S 595 mmHg 92%
    22:00 +6°C° 0.4 mm 1 m/S 595 mmHg 95%
    23:00 +4°C° 0.5 mm 2 m/S 595 mmHg 96%

    übermorgen, 16 Oktober, Mittwoch

    Zeit Temperatur Niederschläge Wind Luftdruck Luftfeuchtigkeit
    00:00 +3°C° 0.5 mm 2 m/S 595 mmHg 97%
    01:00 +2°C° 0.5 mm 2 m/S 595 mmHg 98%
    02:00 +3°C° 0.3 mm 1 m/S 595 mmHg 98%
    03:00 +3°C° 0.3 mm 1 m/S 595 mmHg 98%
    04:00 +2°C° 0.3 mm 1 m/S 595 mmHg 98%
    05:00 +2°C° 0.1 mm 1 m/S 595 mmHg 97%
    06:00 +2°C° 0.1 mm 1 m/S 595 mmHg 96%
    07:00 +2°C° 0.1 mm 1 m/S 596 mmHg 96%
    08:00 +3°C° 0 mm 1 m/S 596 mmHg 91%
    09:00 +4°C° 0 mm 1 m/S 597 mmHg 86%
    10:00 +5°C° 0 mm 1 m/S 597 mmHg 81%
    11:00 +7°C° 0 mm 1 m/S 598 mmHg 74%
    12:00 +8°C° 0 mm 1 m/S 598 mmHg 67%
    13:00 +8°C° 0 mm 2 m/S 599 mmHg 60%
    14:00 +8°C° 0 mm 2 m/S 598 mmHg 61%
    15:00 +8°C° 0 mm 2 m/S 598 mmHg 63%
    16:00 +8°C° 0 mm 1 m/S 598 mmHg 65%
    17:00 +6°C° 0 mm 1 m/S 597 mmHg 72%
    18:00 +5°C° 0 mm 1 m/S 597 mmHg 79%
    19:00 +3°C° 0 mm 1 m/S 596 mmHg 86%
    20:00 +2°C° 0 mm 2 m/S 596 mmHg 87%
    21:00 +2°C° 0 mm 2 m/S 597 mmHg 87%
    22:00 +2°C° 0 mm 2 m/S 597 mmHg 87%
    23:00 +2°C° 0 mm 2 m/S 597 mmHg 87%

    17 Oktober, Donnerstag

    Zeit Temperatur Niederschläge Wind Luftdruck Luftfeuchtigkeit
    00:00 +2°C° 0 mm 2 m/S 597 mmHg 87%
    01:00 +1°C° 0 mm 2 m/S 596 mmHg 86%
    02:00 +1°C° 0 mm 2 m/S 596 mmHg 84%
    03:00 -1°C° 0 mm 2 m/S 596 mmHg 82%
    04:00 +1°C° 0 mm 1 m/S 596 mmHg 80%
    05:00 +1°C° 0 mm 1 m/S 596 mmHg 77%
    06:00 +2°C° 0 mm 1 m/S 596 mmHg 74%
    07:00 +2°C° 0 mm 1 m/S 596 mmHg 70%
    08:00 +4°C° 0 mm 1 m/S 597 mmHg 63%
    09:00 +6°C° 0 mm 1 m/S 598 mmHg 56%
    10:00 +8°C° 0 mm 0 m/S 599 mmHg 49%
    11:00 +9°C° 0 mm 1 m/S 599 mmHg 48%
    12:00 +10°C° 0 mm 1 m/S 599 mmHg 47%
    13:00 +11°C° 0 mm 1 m/S 600 mmHg 46%
    14:00 +10°C° 0 mm 1 m/S 599 mmHg 51%
    15:00 +10°C° 0 mm 1 m/S 599 mmHg 57%
    16:00 +9°C° 0 mm 1 m/S 599 mmHg 62%
    17:00 +7°C° 0 mm 1 m/S 598 mmHg 71%
    18:00 +5°C° 0 mm 1 m/S 597 mmHg 80%
    19:00 +2°C° 0 mm 0 m/S 597 mmHg 90%
    20:00 +2°C° 0 mm 0 m/S 597 mmHg 89%
    21:00 +2°C° 0 mm 0 m/S 597 mmHg 88%
    22:00 +2°C° 0 mm 0 m/S 597 mmHg 88%
    23:00 +2°C° 0 mm 0 m/S 597 mmHg 87%

    18 Oktober, Freitag

    Zeit Temperatur Niederschläge Wind Luftdruck Luftfeuchtigkeit
    00:00 +2°C° 0 mm 1 m/S 597 mmHg 87%
    01:00 +2°C° 0 mm 1 m/S 596 mmHg 86%
    02:00 +2°C° 0 mm 1 m/S 596 mmHg 85%
    03:00 +1°C° 0 mm 0 m/S 596 mmHg 84%
    04:00 +1°C° 0 mm 0 m/S 596 mmHg 84%
    05:00 +1°C° 0 mm 0 m/S 597 mmHg 83%
    06:00 +1°C° 0 mm 0 m/S 597 mmHg 82%
    07:00 +2°C° 0 mm 0 m/S 597 mmHg 81%
    08:00 +4°C° 0 mm 0 m/S 598 mmHg 75%
    09:00 +6°C° 0 mm 1 m/S 598 mmHg 68%
    10:00 +8°C° 0 mm 1 m/S 599 mmHg 61%
    11:00 +9°C° 0 mm 1 m/S 599 mmHg 61%
    12:00 +9°C° 0 mm 1 m/S 599 mmHg 60%
    13:00 +10°C° 0 mm 1 m/S 599 mmHg 60%
    14:00 +9°C° 0 mm 1 m/S 599 mmHg 65%
    15:00 +8°C° 0 mm 1 m/S 598 mmHg 70%
    16:00 +8°C° 0 mm 1 m/S 598 mmHg 75%
    17:00 +7°C° 0.1 mm 1 m/S 597 mmHg 81%
    18:00 +6°C° 0.1 mm 1 m/S 597 mmHg 87%
    19:00 +5°C° 0.1 mm 1 m/S 597 mmHg 93%
    20:00 +5°C° 0.1 mm 1 m/S 597 mmHg 93%
    21:00 +5°C° 0.1 mm 1 m/S 597 mmHg 93%
    22:00 +5°C° 0.1 mm 1 m/S 597 mmHg 93%
    23:00 +5°C° 0 mm 1 m/S 597 mmHg 92%

    19 Oktober, Samstag

    Zeit Temperatur Niederschläge Wind Luftdruck Luftfeuchtigkeit
    00:00 +5°C° 0 mm 1 m/S 596 mmHg 92%
    01:00 +4°C° 0 mm 1 m/S 596 mmHg 92%
    02:00 +4°C° 0 mm 1 m/S 596 mmHg 92%
    03:00 +4°C° 0 mm 1 m/S 596 mmHg 92%
    04:00 +4°C° 0 mm 1 m/S 596 mmHg 92%
    05:00 +4°C° 0 mm 1 m/S 596 mmHg 91%
    06:00 +4°C° 0 mm 1 m/S 596 mmHg 91%
    07:00 +5°C° 0 mm 1 m/S 596 mmHg 91%
    08:00 +6°C° 0 mm 1 m/S 597 mmHg 86%
    09:00 +7°C° 0 mm 1 m/S 597 mmHg 82%
    10:00 +8°C° 0 mm 1 m/S 598 mmHg 78%
    11:00 +8°C° 0.1 mm 1 m/S 598 mmHg 75%
    12:00 +9°C° 0.1 mm 1 m/S 598 mmHg 72%
    13:00 +9°C° 0.1 mm 1 m/S 598 mmHg 69%
    14:00 +8°C° 0.1 mm 2 m/S 597 mmHg 73%
    15:00 +7°C° 0.1 mm 2 m/S 597 mmHg 77%
    16:00 +7°C° 0.1 mm 2 m/S 596 mmHg 80%
    17:00 +4°C° 0 mm 3 m/S 595 mmHg 84%
    18:00 +3°C° 0 mm 3 m/S 595 mmHg 87%
    19:00 +2°C° 0 mm 3 m/S 594 mmHg 90%
    20:00 +2°C° 0 mm 3 m/S 594 mmHg 89%
    21:00 +1°C° 0 mm 4 m/S 594 mmHg 89%
    22:00 +1°C° 0 mm 4 m/S 594 mmHg 88%
    23:00 +1°C° 0 mm 4 m/S 594 mmHg 89%
    Mehr zeigen